San Ysidro, CA

10:56 PM PDT on September 30, 2016 (GMT -0700)
Brown Municipal

Weather History for KSDM - February, 2014

Change the Weather History Date:

Wednesday, February 19, 2014

  Actual Average Record
Temperature  
Mean Temperature 54 °F 56 °F  
Max Temperature 60 °F 66 °F 73 °F (2009)
Min Temperature 48 °F 46 °F 36 °F (1956)
Degree Days  
Heating Degree Days 11 9  
Month to date heating degree days 184  
Since 1 July heating degree days 1088  
Cooling Degree Days 0 0  
Month to date cooling degree days 0  
Year to date cooling degree days 3  
Growing Degree Days 4 (Base 50)    
Moisture  
Dew Point 49 °F    
Average Humidity 85    
Maximum Humidity 93    
Minimum Humidity 69    
Precipitation  
Precipitation 0.00 in 0.09 in 1.56 in (2007)
Month to date precipitation 1.37  
Year to date precipitation 3.85  
Sea Level Pressure  
Sea Level Pressure 29.96 in    
Wind  
Wind Speed 2 mph (West)    
Max Wind Speed 7 mph    
Max Gust Speed -    
Visibility 9 miles    
Events      
T = Trace of Precipitation, MM = Missing Value Source: NWS Daily Summary

Daily Weather History Graph

Daily Weather History Graph

Search for Another Location

Airport or City:

Trip Planner

Search our weather history database for the weather conditions in past years. The results will help you decide how hot, cold, wet, or windy it might be!

Date:

Astronomy

Feb. 19, 2014 Rise Set
Actual Time 6:26 AM PST 5:37 PM PST
Civil Twilight 6:01 AM PST 6:02 PM PST
Nautical Twilight 5:32 AM PST 6:30 PM PST
Astronomical Twilight 5:04 AM PST 6:59 PM PST
Moon 10:16 PM PST (2/19) 8:52 AM PST (2/19)
Length of Visible Light 12h 00m
Length of Day
11h 10m
Waning Gibbous, 79% of the Moon is Illuminated
Feb 19
Waning Gibbous
Feb 22
Last Quarter
Mar 1
New
Mar 8
First Quarter
Mar 16
Full

Hourly Weather History & Observations

Time (PST) Temp. Dew Point Humidity Pressure Visibility Wind Dir Wind Speed Gust Speed Precip Events Conditions
12:53 AM 52.0 °F 48.9 °F 89% 30.00 in 9.0 mi WSW 3.5 mph - N/A   Mostly Cloudy
1:01 AM 52.0 °F 48.9 °F 89% 30.00 in 10.0 mi WSW 3.5 mph - N/A   Mostly Cloudy
1:53 AM 53.1 °F 48.9 °F 86% 29.97 in 10.0 mi ESE 6.9 mph - N/A   Overcast
2:53 AM 54.0 °F 50.0 °F 86% 29.97 in 9.0 mi Calm Calm - N/A   Overcast
3:32 AM 54.0 °F 50.0 °F 86% 29.97 in 9.0 mi Calm Calm - N/A   Overcast
3:53 AM 54.0 °F 50.0 °F 86% 29.96 in 10.0 mi Calm Calm - N/A   Overcast
4:16 AM 54.0 °F 50.0 °F 86% 29.96 in 8.0 mi Calm Calm - N/A   Overcast
4:41 AM 54.0 °F 50.0 °F 86% 29.97 in 7.0 mi Calm Calm - N/A   Overcast
4:53 AM 54.0 °F 50.0 °F 86% 29.96 in 8.0 mi Calm Calm - N/A   Overcast
5:53 AM 54.0 °F 50.0 °F 86% 29.98 in 8.0 mi Calm Calm - N/A   Overcast
6:53 AM 54.0 °F 50.0 °F 86% 30.00 in 8.0 mi Calm Calm - N/A   Overcast
3:53 PM 60.1 °F 50.0 °F 69% 29.93 in 10.0 mi North - - N/A   Unknown
4:40 PM 57.9 °F 50.0 °F 75% 29.92 in 10.0 mi WNW 5.8 mph - N/A   Unknown
4:53 PM 57.9 °F 50.0 °F 75% 29.92 in 10.0 mi West 4.6 mph - N/A   Clear
5:53 PM 55.9 °F 50.0 °F 80% 29.94 in 10.0 mi WNW 4.6 mph - N/A   Clear
6:53 PM 54.0 °F 48.9 °F 83% 29.94 in 10.0 mi Calm Calm - N/A   Clear
7:53 PM 54.0 °F 50.0 °F 86% 29.95 in 10.0 mi Calm Calm - N/A   Clear
8:53 PM 51.1 °F 48.9 °F 92% 29.96 in 9.0 mi Calm Calm - N/A   Clear
9:53 PM 52.0 °F 48.9 °F 89% 29.97 in 9.0 mi Calm Calm - N/A   Clear
10:53 PM 48.9 °F 46.9 °F 93% 29.97 in 7.0 mi ENE 5.8 mph - N/A   Clear
11:53 PM 50.0 °F 48.0 °F 93% 29.95 in 7.0 mi Calm Calm - N/A   Clear